Terminal Aerodrome Forecast
Issued by NWS

Home | Current Version | Previous Version | Text Only | Print | Product List | Glossary On
Versions: 1 2 3 4 5 6 7 8 9 10 11 12 13 14 15
000
FTUS42 TJSJ 261124
TAFJMZ
TAF
TJMZ 261124Z 2612/2712 07008KT P6SM SCT030 SCT040
     FM261600 29006KT P6SM VCTS SCT030CB BKN040
     FM262300 06006KT P6SM SCT025 SCT040
      AMD NOT SKED TIL 261500=

USA.gov is the U.S. government's official web portal to all federal, state and local government web resources and services.